Regional Weather Roundup
Issued by NWS

Home | Current Version | Previous Version | Text Only | Print | Product List | Glossary Off
Versions: 1 2 3 4 5 6 7 8 9 10 11 12 13 14 15 16 17 18 19 20 21 22 23 24 25 26 27 28 29

000
ASUS45 KGTF 261110
RWRMT
MONTANA HOURLY WEATHER ROUNDUP
NATIONAL WEATHER SERVICE GREAT FALLS MT
500 AM MDT SUN APR 26 2015

NOTE: "FAIR" INDICATES FEW OR NO CLOUDS BELOW 12000 FEET WITH NO
SIGNIFICANT WEATHER AND/OR OBSTRUCTIONS TO VISIBILITY.

MTZ001>007-043-261200-
WEST OF THE DIVIDE

CITY           SKY/WX    TMP DP  RH WIND       PRES   REMARKS
KALISPELL      CLOUDY    41  28  60 N16       29.97R
MISSOULA       LGT RAIN  39  35  86 NW9       29.98R
BUTTE          LGT SNOW  33  31  92 NW6       29.87R FOG     WCI  28
DEER LODGE       N/A     36  27  69 N7        29.97R WCI  30
EUREKA           N/A     34  30  86 CALM      30.03R
HAMILTON         N/A     37  36  93 NW5       29.95R
LIBBY            N/A     36  34  93 CALM      30.03R
$$

MTZ008-052>055-261200-
SOUTHWEST MONTANA

CITY           SKY/WX    TMP DP  RH WIND       PRES   REMARKS
BOZEMAN        CLOUDY    42  35  76 W12       29.85R
DILLON         CLOUDY    36  32  85 NE14      29.83R WCI  27
$$

MTZ009-010-012-014-046-048-049-054-261200-
EAST SLOPES AND CENTRAL MONTANA

CITY           SKY/WX    TMP DP  RH WIND       PRES   REMARKS
CUT BANK       CLOUDY    29  23  78 N13       30.06R WCI  19
GREAT FALLS    CLOUDY    31  25  78 N14       30.05R WCI  21
HELENA         CLOUDY    37  29  72 N14       29.95R WCI  28
$$

MTZ011-013-016-021-045-047-050-051-261200-
NORTH CENTRAL MONTANA

CITY           SKY/WX    TMP DP  RH WIND       PRES   REMARKS
HAVRE          CLOUDY    33  26  75 NW14      30.07R WCI  23
LEWISTOWN      CLOUDY    32  29  88 NW7       30.00R WCI  26
CHINOOK          N/A     36  27  69 W13       30.07R WCI  27
FORT BENTON      N/A     34  28  80 N5        30.08R
$$

MTZ017>020-022>042-056>058-061-062-261200-
EASTERN PLAINS

CITY           SKY/WX    TMP DP  RH WIND       PRES   REMARKS
BAKER          CLOUDY    36  35  96 SE3       29.98R
BILLINGS       CLOUDY    39  35  86 NE5       29.93R
GLASGOW        CLOUDY    38  33  82 NW13      30.00R WCI  30
JORDAN           N/A     39  36  89 N15       29.98R WCI  31
LIVINGSTON     CLOUDY    40  35  83 E16       29.88R
MILES CITY     FOG       32  32 100 N3        29.96R VSB 1/2
SIDNEY         CLOUDY    39  36  87 NW9       30.00R
WOLF POINT     CLOUDY    39  36  89 W6        30.01R
BIG TIMBER       N/A     39  36  87 E6        29.94R
FORSYTH          N/A     36  36 100 CALM      29.96R
PLENTYWOOD       N/A     37  34  87 W14       29.99R WCI  29
POPLAR           N/A     37  37 100 NW5       30.02R
$$

REGIONAL REPORTS...DAKOTAS

CITY           SKY/WX    TMP DP  RH WIND       PRES   REMARKS
WILLISTON      CLOUDY    38  36  92 NW9       29.99R WCI  31
MINOT          LGT RAIN  46  44  93 SE8       29.95R FOG
DICKINSON      CLOUDY    43  40  89 CALM      29.94R
BEACH          FOG       32  32 100 CALM      30.00R VSB 1/2
CROSBY         CLOUDY    37  37 100 W10       29.98R WCI  30
WATFORD CITY   CLOUDY    37  37 100 W7        29.96R
BISMARCK       LGT RAIN  46  45  96 E5        29.99R FOG
GRAND FORKS    PTCLDY    36  28  73 SE8       30.06R WCI  30
FARGO          PTCLDY    39  26  59 S6        30.07R
BUFFALO SD       N/A     43  40  89 N7        29.88R
RAPID CITY     CLOUDY    43  41  93 N16       29.90R
$$

REGIONAL REPORTS...WYOMING/IDAHO/WASHINGTON

CITY           SKY/WX    TMP DP  RH WIND       PRES   REMARKS
GILLETTE       CLOUDY    39  35  86 N9        29.91R
SHERIDAN       CLOUDY    40  34  79 CALM      29.92S
BUFFALO WY     CLOUDY    38  32  79 NW5       29.91R
CODY           CLOUDY    39  28  65 N20       29.86R WCI  30
YELLOWSTONE LA   N/A     31  28  89 CALM      29.83R
IDAHO FALLS    LGT RAIN  39  37  92 SW15      29.80R WCI  31
SALMON         CLOUDY    37  36  93 CALM      29.89R
BOISE          CLEAR     37  28  70 NW8       29.98R WCI  31
SPOKANE        FOG       34  34 100 CALM      30.03R VSB 1/2
$$

REGIONAL REPORTS...ALBERTA

CITY           SKY/WX    TMP DP  RH WIND       PRES   REMARKS
EDMONTON       CLEAR     23  19  86 W3        30.10R
CALGARY        PTCLDY    25  21  86 W3        30.07R
LETHBRIDGE     CLOUDY    30  25  80 NW13      30.09R WCI  20
MEDICINE HAT   CLOUDY    32  30  93 NW10      30.08R WCI  24
$$

REGIONAL REPORTS...SASKATCHEWAN

CITY           SKY/WX    TMP DP  RH WIND       PRES   REMARKS
SWIFT CURRENT  CLOUDY    28  28 100 NW22      29.95R WCI  15
REGINA         CLOUDY    36  34  93 W17G24    29.91R WCI  25
SASKATOON      LGT SNOW  32  30  93 N14       29.91R VSB 3/4 WCI  22
$$



USA.gov is the U.S. government's official web portal to all federal, state and local government web resources and services.